<?xml version="1.0" encoding="UTF-8" standalone="no" ?>
<gpx xmlns="http://www.topografix.com/GPX/1/1" xmlns:xsi="http://www.w3.org/2001/XMLSchema-instance" xsi:schemaLocation="http://www.topografix.com/GPX/1/1 http://www.topografix.com/GPX/1/1/gpx.xsd" version="1.1" creator="VisuGPX - https://www.visugpx.com">
  <metadata>
    <name>retour gréziolles</name>
  </metadata>
  <trk>
    <name><![CDATA[Pic de Montarrouye - Mai 2013]]></name>
    <extensions>
      <line xmlns="http://www.topografix.com/GPX/gpx_style/0/2">
        <color>0000FF</color>
        <width>4</width>
      </line>
    </extensions>
    <trkseg>
      <trkpt lat="42.88726" lon="0.2051">
        <ele>2115.5185547</ele>
        <time>2013-05-05T11:39:53Z</time>
      </trkpt>
      <trkpt lat="42.88743" lon="0.20497">
        <ele>2114.076416</ele>
        <time>2013-05-05T11:40:14Z</time>
      </trkpt>
      <trkpt lat="42.88756" lon="0.20488">
        <ele>2113.1152344</ele>
        <time>2013-05-05T11:40:34Z</time>
      </trkpt>
      <trkpt lat="42.88765" lon="0.2048">
        <ele>2113.1152344</ele>
        <time>2013-05-05T11:40:50Z</time>
      </trkpt>
      <trkpt lat="42.88771" lon="0.20479">
        <ele>2113.5957031</ele>
        <time>2013-05-05T11:40:58Z</time>
      </trkpt>
      <trkpt lat="42.88782" lon="0.20478">
        <ele>2114.5571289</ele>
        <time>2013-05-05T11:41:16Z</time>
      </trkpt>
      <trkpt lat="42.88783" lon="0.20478">
        <ele>2114.5571289</ele>
        <time>2013-05-05T11:42:47Z</time>
      </trkpt>
      <trkpt lat="42.88785" lon="0.20478">
        <ele>2114.5571289</ele>
        <time>2013-05-05T11:43:10Z</time>
      </trkpt>
      <trkpt lat="42.8879" lon="0.20479">
        <ele>2114.076416</ele>
        <time>2013-05-05T11:43:33Z</time>
      </trkpt>
      <trkpt lat="42.88807" lon="0.20487">
        <ele>2113.1152344</ele>
        <time>2013-05-05T11:43:53Z</time>
      </trkpt>
      <trkpt lat="42.88821" lon="0.20489">
        <ele>2114.5571289</ele>
        <time>2013-05-05T11:44:11Z</time>
      </trkpt>
      <trkpt lat="42.88834" lon="0.20491">
        <ele>2115.0378418</ele>
        <time>2013-05-05T11:44:30Z</time>
      </trkpt>
      <trkpt lat="42.88843" lon="0.20491">
        <ele>2117.440918</ele>
        <time>2013-05-05T11:44:46Z</time>
      </trkpt>
      <trkpt lat="42.88849" lon="0.20492">
        <ele>2119.8442383</ele>
        <time>2013-05-05T11:45:01Z</time>
      </trkpt>
      <trkpt lat="42.88857" lon="0.20494">
        <ele>2121.2861328</ele>
        <time>2013-05-05T11:45:15Z</time>
      </trkpt>
      <trkpt lat="42.88869" lon="0.20501">
        <ele>2122.7282715</ele>
        <time>2013-05-05T11:45:33Z</time>
      </trkpt>
      <trkpt lat="42.88883" lon="0.20503">
        <ele>2123.6894531</ele>
        <time>2013-05-05T11:45:52Z</time>
      </trkpt>
      <trkpt lat="42.88893" lon="0.20502">
        <ele>2124.651123</ele>
        <time>2013-05-05T11:46:07Z</time>
      </trkpt>
      <trkpt lat="42.889" lon="0.20501">
        <ele>2126.0930176</ele>
        <time>2013-05-05T11:46:22Z</time>
      </trkpt>
      <trkpt lat="42.88905" lon="0.20503">
        <ele>2127.5349121</ele>
        <time>2013-05-05T11:46:35Z</time>
      </trkpt>
      <trkpt lat="42.88908" lon="0.20502">
        <ele>2128.9768066</ele>
        <time>2013-05-05T11:46:46Z</time>
      </trkpt>
      <trkpt lat="42.88916" lon="0.20496">
        <ele>2130.8996582</ele>
        <time>2013-05-05T11:47:04Z</time>
      </trkpt>
      <trkpt lat="42.88926" lon="0.20485">
        <ele>2133.7834473</ele>
        <time>2013-05-05T11:47:28Z</time>
      </trkpt>
      <trkpt lat="42.88935" lon="0.20471">
        <ele>2137.6286621</ele>
        <time>2013-05-05T11:47:52Z</time>
      </trkpt>
      <trkpt lat="42.8894" lon="0.20461">
        <ele>2140.5126953</ele>
        <time>2013-05-05T11:48:13Z</time>
      </trkpt>
      <trkpt lat="42.88949" lon="0.20452">
        <ele>2142.9160156</ele>
        <time>2013-05-05T11:48:32Z</time>
      </trkpt>
      <trkpt lat="42.88955" lon="0.20444">
        <ele>2144.838623</ele>
        <time>2013-05-05T11:48:47Z</time>
      </trkpt>
      <trkpt lat="42.88957" lon="0.20444">
        <ele>2145.3193359</ele>
        <time>2013-05-05T11:49:06Z</time>
      </trkpt>
      <trkpt lat="42.88957" lon="0.20445">
        <ele>2144.838623</ele>
        <time>2013-05-05T11:49:34Z</time>
      </trkpt>
      <trkpt lat="42.8896" lon="0.20444">
        <ele>2146.2807617</ele>
        <time>2013-05-05T11:50:24Z</time>
      </trkpt>
      <trkpt lat="42.8898" lon="0.20435">
        <ele>2148.203125</ele>
        <time>2013-05-05T11:50:50Z</time>
      </trkpt>
      <trkpt lat="42.88992" lon="0.20417">
        <ele>2151.0871582</ele>
        <time>2013-05-05T11:51:11Z</time>
      </trkpt>
      <trkpt lat="42.89008" lon="0.2041">
        <ele>2153.9711914</ele>
        <time>2013-05-05T11:51:32Z</time>
      </trkpt>
      <trkpt lat="42.89031" lon="0.20408">
        <ele>2155.8935547</ele>
        <time>2013-05-05T11:52:03Z</time>
      </trkpt>
      <trkpt lat="42.89053" lon="0.20413">
        <ele>2156.8552246</ele>
        <time>2013-05-05T11:52:28Z</time>
      </trkpt>
      <trkpt lat="42.8907" lon="0.20422">
        <ele>2157.3359375</ele>
        <time>2013-05-05T11:52:48Z</time>
      </trkpt>
      <trkpt lat="42.8907" lon="0.20421">
        <ele>2156.8552246</ele>
        <time>2013-05-05T11:52:49Z</time>
      </trkpt>
      <trkpt lat="42.89083" lon="0.20422">
        <ele>2157.3359375</ele>
        <time>2013-05-05T11:53:10Z</time>
      </trkpt>
      <trkpt lat="42.89084" lon="0.20424">
        <ele>2157.3359375</ele>
        <time>2013-05-05T11:53:26Z</time>
      </trkpt>
      <trkpt lat="42.89101" lon="0.20432">
        <ele>2155.4130859</ele>
        <time>2013-05-05T11:53:48Z</time>
      </trkpt>
      <trkpt lat="42.89104" lon="0.20433">
        <ele>2154.4516602</ele>
        <time>2013-05-05T11:54:05Z</time>
      </trkpt>
      <trkpt lat="42.89106" lon="0.20434">
        <ele>2155.4130859</ele>
        <time>2013-05-05T11:55:12Z</time>
      </trkpt>
      <trkpt lat="42.89131" lon="0.20444">
        <ele>2149.1645508</ele>
        <time>2013-05-05T11:55:35Z</time>
      </trkpt>
      <trkpt lat="42.89147" lon="0.20454">
        <ele>2146.2807617</ele>
        <time>2013-05-05T11:55:58Z</time>
      </trkpt>
      <trkpt lat="42.89167" lon="0.20472">
        <ele>2141.954834</ele>
        <time>2013-05-05T11:56:20Z</time>
      </trkpt>
      <trkpt lat="42.89174" lon="0.20477">
        <ele>2139.5512695</ele>
        <time>2013-05-05T11:56:28Z</time>
      </trkpt>
      <trkpt lat="42.89181" lon="0.20481">
        <ele>2138.109375</ele>
        <time>2013-05-05T11:56:47Z</time>
      </trkpt>
      <trkpt lat="42.89181" lon="0.20483">
        <ele>2138.109375</ele>
        <time>2013-05-05T11:56:54Z</time>
      </trkpt>
      <trkpt lat="42.89184" lon="0.20486">
        <ele>2137.1479492</ele>
        <time>2013-05-05T11:56:58Z</time>
      </trkpt>
      <trkpt lat="42.89197" lon="0.20494">
        <ele>2132.8220215</ele>
        <time>2013-05-05T11:57:20Z</time>
      </trkpt>
      <trkpt lat="42.89199" lon="0.20493">
        <ele>2131.380127</ele>
        <time>2013-05-05T11:57:36Z</time>
      </trkpt>
      <trkpt lat="42.89206" lon="0.20496">
        <ele>2129.9382324</ele>
        <time>2013-05-05T11:57:42Z</time>
      </trkpt>
      <trkpt lat="42.89208" lon="0.205">
        <ele>2128.9768066</ele>
        <time>2013-05-05T11:57:45Z</time>
      </trkpt>
      <trkpt lat="42.89212" lon="0.20503">
        <ele>2127.5349121</ele>
        <time>2013-05-05T11:57:49Z</time>
      </trkpt>
      <trkpt lat="42.89218" lon="0.20525">
        <ele>2124.651123</ele>
        <time>2013-05-05T11:58:08Z</time>
      </trkpt>
      <trkpt lat="42.8922" lon="0.20537">
        <ele>2122.7282715</ele>
        <time>2013-05-05T11:58:18Z</time>
      </trkpt>
      <trkpt lat="42.89219" lon="0.2055">
        <ele>2122.2475586</ele>
        <time>2013-05-05T11:58:28Z</time>
      </trkpt>
      <trkpt lat="42.89218" lon="0.20555">
        <ele>2121.2861328</ele>
        <time>2013-05-05T11:58:32Z</time>
      </trkpt>
      <trkpt lat="42.89217" lon="0.20561">
        <ele>2121.7668457</ele>
        <time>2013-05-05T11:58:52Z</time>
      </trkpt>
      <trkpt lat="42.89217" lon="0.20562">
        <ele>2121.2861328</ele>
        <time>2013-05-05T11:59:23Z</time>
      </trkpt>
      <trkpt lat="42.89218" lon="0.20563">
        <ele>2120.8056641</ele>
        <time>2013-05-05T12:00:08Z</time>
      </trkpt>
      <trkpt lat="42.89219" lon="0.20565">
        <ele>2120.3249512</ele>
        <time>2013-05-05T12:01:16Z</time>
      </trkpt>
      <trkpt lat="42.89227" lon="0.20581">
        <ele>2113.5957031</ele>
        <time>2013-05-05T12:01:36Z</time>
      </trkpt>
      <trkpt lat="42.89237" lon="0.2059">
        <ele>2109.2700195</ele>
        <time>2013-05-05T12:01:53Z</time>
      </trkpt>
      <trkpt lat="42.89249" lon="0.20605">
        <ele>2103.0212402</ele>
        <time>2013-05-05T12:02:11Z</time>
      </trkpt>
      <trkpt lat="42.89258" lon="0.20619">
        <ele>2098.2145996</ele>
        <time>2013-05-05T12:02:39Z</time>
      </trkpt>
      <trkpt lat="42.89261" lon="0.20629">
        <ele>2093.4082031</ele>
        <time>2013-05-05T12:02:59Z</time>
      </trkpt>
      <trkpt lat="42.89258" lon="0.2064">
        <ele>2088.6015625</ele>
        <time>2013-05-05T12:03:18Z</time>
      </trkpt>
      <trkpt lat="42.89258" lon="0.20643">
        <ele>2087.1594238</ele>
        <time>2013-05-05T12:03:21Z</time>
      </trkpt>
      <trkpt lat="42.89257" lon="0.20649">
        <ele>2084.7563477</ele>
        <time>2013-05-05T12:03:37Z</time>
      </trkpt>
      <trkpt lat="42.89257" lon="0.20648">
        <ele>2084.2756348</ele>
        <time>2013-05-05T12:04:52Z</time>
      </trkpt>
      <trkpt lat="42.89258" lon="0.20649">
        <ele>2084.2756348</ele>
        <time>2013-05-05T12:05:26Z</time>
      </trkpt>
      <trkpt lat="42.8926" lon="0.20651">
        <ele>2083.7949219</ele>
        <time>2013-05-05T12:05:28Z</time>
      </trkpt>
      <trkpt lat="42.89278" lon="0.20667">
        <ele>2080.9111328</ele>
        <time>2013-05-05T12:05:48Z</time>
      </trkpt>
      <trkpt lat="42.8928" lon="0.20667">
        <ele>2080.4304199</ele>
        <time>2013-05-05T12:06:07Z</time>
      </trkpt>
      <trkpt lat="42.89284" lon="0.20672">
        <ele>2080.4304199</ele>
        <time>2013-05-05T12:06:48Z</time>
      </trkpt>
      <trkpt lat="42.8929" lon="0.20679">
        <ele>2080.9111328</ele>
        <time>2013-05-05T12:06:59Z</time>
      </trkpt>
      <trkpt lat="42.89297" lon="0.20685">
        <ele>2079.949707</ele>
        <time>2013-05-05T12:07:07Z</time>
      </trkpt>
      <trkpt lat="42.8932" lon="0.207">
        <ele>2075.1428223</ele>
        <time>2013-05-05T12:07:29Z</time>
      </trkpt>
      <trkpt lat="42.89331" lon="0.20701">
        <ele>2073.220459</ele>
        <time>2013-05-05T12:07:42Z</time>
      </trkpt>
      <trkpt lat="42.89341" lon="0.20709">
        <ele>2071.7783203</ele>
        <time>2013-05-05T12:07:57Z</time>
      </trkpt>
      <trkpt lat="42.89352" lon="0.20715">
        <ele>2072.2590332</ele>
        <time>2013-05-05T12:08:13Z</time>
      </trkpt>
      <trkpt lat="42.8937" lon="0.20732">
        <ele>2071.7783203</ele>
        <time>2013-05-05T12:08:33Z</time>
      </trkpt>
      <trkpt lat="42.8938" lon="0.20749">
        <ele>2068.8945313</ele>
        <time>2013-05-05T12:08:50Z</time>
      </trkpt>
      <trkpt lat="42.894" lon="0.2077">
        <ele>2062.1652832</ele>
        <time>2013-05-05T12:09:12Z</time>
      </trkpt>
      <trkpt lat="42.8941" lon="0.20785">
        <ele>2056.8779297</ele>
        <time>2013-05-05T12:09:30Z</time>
      </trkpt>
      <trkpt lat="42.89429" lon="0.20799">
        <ele>2046.3037109</ele>
        <time>2013-05-05T12:09:52Z</time>
      </trkpt>
      <trkpt lat="42.8943" lon="0.20799">
        <ele>2045.3422852</ele>
        <time>2013-05-05T12:09:53Z</time>
      </trkpt>
      <trkpt lat="42.89435" lon="0.20798">
        <ele>2043.9001465</ele>
        <time>2013-05-05T12:09:57Z</time>
      </trkpt>
      <trkpt lat="42.89438" lon="0.20798">
        <ele>2042.9387207</ele>
        <time>2013-05-05T12:10:00Z</time>
      </trkpt>
      <trkpt lat="42.89442" lon="0.20799">
        <ele>2041.4968262</ele>
        <time>2013-05-05T12:10:03Z</time>
      </trkpt>
      <trkpt lat="42.89447" lon="0.20795">
        <ele>2038.6130371</ele>
        <time>2013-05-05T12:10:23Z</time>
      </trkpt>
      <trkpt lat="42.89466" lon="0.20778">
        <ele>2030.9226074</ele>
        <time>2013-05-05T12:10:43Z</time>
      </trkpt>
      <trkpt lat="42.89467" lon="0.20775">
        <ele>2030.4418945</ele>
        <time>2013-05-05T12:10:45Z</time>
      </trkpt>
      <trkpt lat="42.8948" lon="0.20747">
        <ele>2031.4030762</ele>
        <time>2013-05-05T12:11:09Z</time>
      </trkpt>
      <trkpt lat="42.89492" lon="0.20727">
        <ele>2023.7124023</ele>
        <time>2013-05-05T12:11:30Z</time>
      </trkpt>
      <trkpt lat="42.89507" lon="0.20712">
        <ele>2021.7897949</ele>
        <time>2013-05-05T12:11:49Z</time>
      </trkpt>
      <trkpt lat="42.89525" lon="0.207">
        <ele>2017.9445801</ele>
        <time>2013-05-05T12:12:15Z</time>
      </trkpt>
      <trkpt lat="42.89543" lon="0.20687">
        <ele>2009.2927246</ele>
        <time>2013-05-05T12:12:34Z</time>
      </trkpt>
      <trkpt lat="42.89554" lon="0.20674">
        <ele>2004.486084</ele>
        <time>2013-05-05T12:12:51Z</time>
      </trkpt>
      <trkpt lat="42.89569" lon="0.20659">
        <ele>1999.6796875</ele>
        <time>2013-05-05T12:13:13Z</time>
      </trkpt>
      <trkpt lat="42.89581" lon="0.20651">
        <ele>1997.7570801</ele>
        <time>2013-05-05T12:13:38Z</time>
      </trkpt>
      <trkpt lat="42.89581" lon="0.2065">
        <ele>1995.8342285</ele>
        <time>2013-05-05T12:14:30Z</time>
      </trkpt>
      <trkpt lat="42.89582" lon="0.2065">
        <ele>1995.3535156</ele>
        <time>2013-05-05T12:14:56Z</time>
      </trkpt>
      <trkpt lat="42.89582" lon="0.20651">
        <ele>1995.3535156</ele>
        <time>2013-05-05T12:16:59Z</time>
      </trkpt>
      <trkpt lat="42.89592" lon="0.20644">
        <ele>1994.3920898</ele>
        <time>2013-05-05T12:17:44Z</time>
      </trkpt>
      <trkpt lat="42.89609" lon="0.20627">
        <ele>1992.4697266</ele>
        <time>2013-05-05T12:18:05Z</time>
      </trkpt>
      <trkpt lat="42.89629" lon="0.20623">
        <ele>1988.1437988</ele>
        <time>2013-05-05T12:18:25Z</time>
      </trkpt>
      <trkpt lat="42.89637" lon="0.20627">
        <ele>1985.7404785</ele>
        <time>2013-05-05T12:18:35Z</time>
      </trkpt>
      <trkpt lat="42.89661" lon="0.20639">
        <ele>1981.4145508</ele>
        <time>2013-05-05T12:18:58Z</time>
      </trkpt>
      <trkpt lat="42.89681" lon="0.20636">
        <ele>1981.4145508</ele>
        <time>2013-05-05T12:19:17Z</time>
      </trkpt>
      <trkpt lat="42.89694" lon="0.20635">
        <ele>1981.4145508</ele>
        <time>2013-05-05T12:19:34Z</time>
      </trkpt>
      <trkpt lat="42.89707" lon="0.20637">
        <ele>1980.934082</ele>
        <time>2013-05-05T12:19:46Z</time>
      </trkpt>
      <trkpt lat="42.89711" lon="0.20637">
        <ele>1981.4145508</ele>
        <time>2013-05-05T12:19:50Z</time>
      </trkpt>
      <trkpt lat="42.89721" lon="0.20638">
        <ele>1981.4145508</ele>
        <time>2013-05-05T12:20:04Z</time>
      </trkpt>
      <trkpt lat="42.89734" lon="0.20638">
        <ele>1981.8952637</ele>
        <time>2013-05-05T12:20:20Z</time>
      </trkpt>
      <trkpt lat="42.8974" lon="0.20638">
        <ele>1981.4145508</ele>
        <time>2013-05-05T12:20:25Z</time>
      </trkpt>
      <trkpt lat="42.89755" lon="0.20618">
        <ele>1972.7626953</ele>
        <time>2013-05-05T12:20:45Z</time>
      </trkpt>
      <trkpt lat="42.89772" lon="0.20609">
        <ele>1964.1108398</ele>
        <time>2013-05-05T12:21:04Z</time>
      </trkpt>
      <trkpt lat="42.89773" lon="0.20609">
        <ele>1963.1494141</ele>
        <time>2013-05-05T12:21:07Z</time>
      </trkpt>
      <trkpt lat="42.89778" lon="0.20608">
        <ele>1959.784668</ele>
        <time>2013-05-05T12:21:12Z</time>
      </trkpt>
      <trkpt lat="42.89782" lon="0.20608">
        <ele>1957.8623047</ele>
        <time>2013-05-05T12:21:15Z</time>
      </trkpt>
      <trkpt lat="42.8979" lon="0.20611">
        <ele>1954.9782715</ele>
        <time>2013-05-05T12:21:27Z</time>
      </trkpt>
      <trkpt lat="42.898" lon="0.20612">
        <ele>1951.1330566</ele>
        <time>2013-05-05T12:21:36Z</time>
      </trkpt>
      <trkpt lat="42.89819" lon="0.20613">
        <ele>1940.0778809</ele>
        <time>2013-05-05T12:21:54Z</time>
      </trkpt>
      <trkpt lat="42.89828" lon="0.20616">
        <ele>1934.7907715</ele>
        <time>2013-05-05T12:22:10Z</time>
      </trkpt>
      <trkpt lat="42.89836" lon="0.20621">
        <ele>1930.9453125</ele>
        <time>2013-05-05T12:22:25Z</time>
      </trkpt>
      <trkpt lat="42.89843" lon="0.20629">
        <ele>1927.5805664</ele>
        <time>2013-05-05T12:22:40Z</time>
      </trkpt>
      <trkpt lat="42.89849" lon="0.20635">
        <ele>1924.6967773</ele>
        <time>2013-05-05T12:22:52Z</time>
      </trkpt>
      <trkpt lat="42.89853" lon="0.20641">
        <ele>1921.8127441</ele>
        <time>2013-05-05T12:23:06Z</time>
      </trkpt>
      <trkpt lat="42.89859" lon="0.20649">
        <ele>1920.3708496</ele>
        <time>2013-05-05T12:23:19Z</time>
      </trkpt>
      <trkpt lat="42.89868" lon="0.20659">
        <ele>1919.8901367</ele>
        <time>2013-05-05T12:23:33Z</time>
      </trkpt>
      <trkpt lat="42.89877" lon="0.20671">
        <ele>1917.4868164</ele>
        <time>2013-05-05T12:23:49Z</time>
      </trkpt>
      <trkpt lat="42.89886" lon="0.20684">
        <ele>1914.6027832</ele>
        <time>2013-05-05T12:24:06Z</time>
      </trkpt>
      <trkpt lat="42.89887" lon="0.20684">
        <ele>1914.1220703</ele>
        <time>2013-05-05T12:24:07Z</time>
      </trkpt>
      <trkpt lat="42.89893" lon="0.2069">
        <ele>1912.1994629</ele>
        <time>2013-05-05T12:24:18Z</time>
      </trkpt>
      <trkpt lat="42.89901" lon="0.20698">
        <ele>1910.7575684</ele>
        <time>2013-05-05T12:24:32Z</time>
      </trkpt>
      <trkpt lat="42.89905" lon="0.20704">
        <ele>1909.7961426</ele>
        <time>2013-05-05T12:24:42Z</time>
      </trkpt>
      <trkpt lat="42.89909" lon="0.2071">
        <ele>1910.7575684</ele>
        <time>2013-05-05T12:24:53Z</time>
      </trkpt>
      <trkpt lat="42.89917" lon="0.20716">
        <ele>1911.2382813</ele>
        <time>2013-05-05T12:25:05Z</time>
      </trkpt>
      <trkpt lat="42.89932" lon="0.2073">
        <ele>1909.3156738</ele>
        <time>2013-05-05T12:25:27Z</time>
      </trkpt>
      <trkpt lat="42.89946" lon="0.20738">
        <ele>1908.8349609</ele>
        <time>2013-05-05T12:25:45Z</time>
      </trkpt>
      <trkpt lat="42.89957" lon="0.20747">
        <ele>1907.3930664</ele>
        <time>2013-05-05T12:26:02Z</time>
      </trkpt>
      <trkpt lat="42.89965" lon="0.20758">
        <ele>1907.8737793</ele>
        <time>2013-05-05T12:26:20Z</time>
      </trkpt>
      <trkpt lat="42.89972" lon="0.20762">
        <ele>1905.470459</ele>
        <time>2013-05-05T12:26:34Z</time>
      </trkpt>
      <trkpt lat="42.89978" lon="0.20766">
        <ele>1904.5090332</ele>
        <time>2013-05-05T12:26:48Z</time>
      </trkpt>
      <trkpt lat="42.89994" lon="0.2077">
        <ele>1902.5864258</ele>
        <time>2013-05-05T12:27:09Z</time>
      </trkpt>
      <trkpt lat="42.90008" lon="0.20781">
        <ele>1899.7023926</ele>
        <time>2013-05-05T12:27:29Z</time>
      </trkpt>
      <trkpt lat="42.90009" lon="0.20781">
        <ele>1898.7409668</ele>
        <time>2013-05-05T12:28:55Z</time>
      </trkpt>
      <trkpt lat="42.90014" lon="0.20783">
        <ele>1897.2990723</ele>
        <time>2013-05-05T12:29:21Z</time>
      </trkpt>
      <trkpt lat="42.90014" lon="0.20782">
        <ele>1896.8183594</ele>
        <time>2013-05-05T12:29:58Z</time>
      </trkpt>
      <trkpt lat="42.90021" lon="0.20786">
        <ele>1894.4150391</ele>
        <time>2013-05-05T12:30:12Z</time>
      </trkpt>
      <trkpt lat="42.90027" lon="0.20794">
        <ele>1892.9731445</ele>
        <time>2013-05-05T12:30:30Z</time>
      </trkpt>
      <trkpt lat="42.90034" lon="0.20799">
        <ele>1890.5698242</ele>
        <time>2013-05-05T12:30:38Z</time>
      </trkpt>
      <trkpt lat="42.90047" lon="0.20809">
        <ele>1884.8022461</ele>
        <time>2013-05-05T12:30:58Z</time>
      </trkpt>
      <trkpt lat="42.90052" lon="0.20811">
        <ele>1880.9567871</ele>
        <time>2013-05-05T12:31:14Z</time>
      </trkpt>
      <trkpt lat="42.90054" lon="0.20818">
        <ele>1878.5534668</ele>
        <time>2013-05-05T12:31:30Z</time>
      </trkpt>
      <trkpt lat="42.90055" lon="0.20823">
        <ele>1877.592041</ele>
        <time>2013-05-05T12:31:41Z</time>
      </trkpt>
      <trkpt lat="42.90056" lon="0.20828">
        <ele>1875.1887207</ele>
        <time>2013-05-05T12:31:57Z</time>
      </trkpt>
      <trkpt lat="42.90057" lon="0.20831">
        <ele>1874.708252</ele>
        <time>2013-05-05T12:32:13Z</time>
      </trkpt>
      <trkpt lat="42.90058" lon="0.20835">
        <ele>1873.7468262</ele>
        <time>2013-05-05T12:32:30Z</time>
      </trkpt>
      <trkpt lat="42.9006" lon="0.2084">
        <ele>1872.7856445</ele>
        <time>2013-05-05T12:32:45Z</time>
      </trkpt>
      <trkpt lat="42.90061" lon="0.20842">
        <ele>1872.3049316</ele>
        <time>2013-05-05T12:32:58Z</time>
      </trkpt>
      <trkpt lat="42.90062" lon="0.20841">
        <ele>1871.8242188</ele>
        <time>2013-05-05T12:33:40Z</time>
      </trkpt>
      <trkpt lat="42.90064" lon="0.20845">
        <ele>1871.8242188</ele>
        <time>2013-05-05T12:33:55Z</time>
      </trkpt>
      <trkpt lat="42.90065" lon="0.20847">
        <ele>1871.8242188</ele>
        <time>2013-05-05T12:34:13Z</time>
      </trkpt>
      <trkpt lat="42.90065" lon="0.20848">
        <ele>1870.8630371</ele>
        <time>2013-05-05T12:34:34Z</time>
      </trkpt>
      <trkpt lat="42.90066" lon="0.2085">
        <ele>1869.9016113</ele>
        <time>2013-05-05T12:34:49Z</time>
      </trkpt>
      <trkpt lat="42.90065" lon="0.20849">
        <ele>1870.8630371</ele>
        <time>2013-05-05T12:35:36Z</time>
      </trkpt>
      <trkpt lat="42.90065" lon="0.2085">
        <ele>1870.8630371</ele>
        <time>2013-05-05T12:36:08Z</time>
      </trkpt>
      <trkpt lat="42.90066" lon="0.2085">
        <ele>1870.3823242</ele>
        <time>2013-05-05T12:36:42Z</time>
      </trkpt>
      <trkpt lat="42.90066" lon="0.20854">
        <ele>1868.9404297</ele>
        <time>2013-05-05T12:36:57Z</time>
      </trkpt>
      <trkpt lat="42.90069" lon="0.20865">
        <ele>1867.4980469</ele>
        <time>2013-05-05T12:37:15Z</time>
      </trkpt>
      <trkpt lat="42.90073" lon="0.20863">
        <ele>1865.5756836</ele>
        <time>2013-05-05T12:37:27Z</time>
      </trkpt>
      <trkpt lat="42.90088" lon="0.20856">
        <ele>1855.9624023</ele>
        <time>2013-05-05T12:37:48Z</time>
      </trkpt>
      <trkpt lat="42.90094" lon="0.20853">
        <ele>1851.6364746</ele>
        <time>2013-05-05T12:38:05Z</time>
      </trkpt>
      <trkpt lat="42.90098" lon="0.2085">
        <ele>1850.1945801</ele>
        <time>2013-05-05T12:38:21Z</time>
      </trkpt>
      <trkpt lat="42.90112" lon="0.20853">
        <ele>1842.0234375</ele>
        <time>2013-05-05T12:38:39Z</time>
      </trkpt>
      <trkpt lat="42.90114" lon="0.20854">
        <ele>1841.5427246</ele>
        <time>2013-05-05T12:38:41Z</time>
      </trkpt>
      <trkpt lat="42.90128" lon="0.20862">
        <ele>1835.7746582</ele>
        <time>2013-05-05T12:38:59Z</time>
      </trkpt>
      <trkpt lat="42.90129" lon="0.2086">
        <ele>1834.3327637</ele>
        <time>2013-05-05T12:39:16Z</time>
      </trkpt>
      <trkpt lat="42.90126" lon="0.20871">
        <ele>1833.3713379</ele>
        <time>2013-05-05T12:40:48Z</time>
      </trkpt>
      <trkpt lat="42.90127" lon="0.20877">
        <ele>1832.890625</ele>
        <time>2013-05-05T12:41:09Z</time>
      </trkpt>
      <trkpt lat="42.90128" lon="0.2089">
        <ele>1833.3713379</ele>
        <time>2013-05-05T12:41:25Z</time>
      </trkpt>
      <trkpt lat="42.90136" lon="0.20908">
        <ele>1827.6035156</ele>
        <time>2013-05-05T12:41:45Z</time>
      </trkpt>
      <trkpt lat="42.90138" lon="0.20915">
        <ele>1825.6809082</ele>
        <time>2013-05-05T12:41:58Z</time>
      </trkpt>
      <trkpt lat="42.9014" lon="0.20925">
        <ele>1821.3549805</ele>
        <time>2013-05-05T12:42:15Z</time>
      </trkpt>
      <trkpt lat="42.90142" lon="0.20929">
        <ele>1819.9128418</ele>
        <time>2013-05-05T12:42:23Z</time>
      </trkpt>
      <trkpt lat="42.90154" lon="0.20933">
        <ele>1814.6257324</ele>
        <time>2013-05-05T12:42:41Z</time>
      </trkpt>
      <trkpt lat="42.90154" lon="0.20934">
        <ele>1814.1450195</ele>
        <time>2013-05-05T12:43:01Z</time>
      </trkpt>
      <trkpt lat="42.90157" lon="0.20941">
        <ele>1812.2224121</ele>
        <time>2013-05-05T12:44:20Z</time>
      </trkpt>
      <trkpt lat="42.90157" lon="0.20947">
        <ele>1811.2612305</ele>
        <time>2013-05-05T12:44:36Z</time>
      </trkpt>
      <trkpt lat="42.90157" lon="0.20954">
        <ele>1810.7805176</ele>
        <time>2013-05-05T12:44:54Z</time>
      </trkpt>
      <trkpt lat="42.9016" lon="0.20961">
        <ele>1807.8967285</ele>
        <time>2013-05-05T12:45:13Z</time>
      </trkpt>
      <trkpt lat="42.90167" lon="0.20962">
        <ele>1804.5319824</ele>
        <time>2013-05-05T12:45:22Z</time>
      </trkpt>
      <trkpt lat="42.90174" lon="0.20967">
        <ele>1799.7253418</ele>
        <time>2013-05-05T12:45:35Z</time>
      </trkpt>
      <trkpt lat="42.90174" lon="0.2097">
        <ele>1798.763916</ele>
        <time>2013-05-05T12:45:41Z</time>
      </trkpt>
      <trkpt lat="42.90175" lon="0.20977">
        <ele>1797.3220215</ele>
        <time>2013-05-05T12:45:57Z</time>
      </trkpt>
      <trkpt lat="42.90176" lon="0.20976">
        <ele>1796.8413086</ele>
        <time>2013-05-05T12:46:32Z</time>
      </trkpt>
      <trkpt lat="42.90176" lon="0.20977">
        <ele>1796.8413086</ele>
        <time>2013-05-05T12:49:05Z</time>
      </trkpt>
      <trkpt lat="42.90185" lon="0.20977">
        <ele>1794.9187012</ele>
        <time>2013-05-05T12:49:23Z</time>
      </trkpt>
      <trkpt lat="42.90199" lon="0.21">
        <ele>1791.0734863</ele>
        <time>2013-05-05T12:49:42Z</time>
      </trkpt>
      <trkpt lat="42.90203" lon="0.21005">
        <ele>1789.6315918</ele>
        <time>2013-05-05T12:49:47Z</time>
      </trkpt>
      <trkpt lat="42.90204" lon="0.21011">
        <ele>1788.6704102</ele>
        <time>2013-05-05T12:49:53Z</time>
      </trkpt>
      <trkpt lat="42.90221" lon="0.21027">
        <ele>1781.940918</ele>
        <time>2013-05-05T12:50:14Z</time>
      </trkpt>
      <trkpt lat="42.90228" lon="0.21031">
        <ele>1780.0183105</ele>
        <time>2013-05-05T12:50:33Z</time>
      </trkpt>
      <trkpt lat="42.90242" lon="0.21038">
        <ele>1774.7312012</ele>
        <time>2013-05-05T12:50:50Z</time>
      </trkpt>
      <trkpt lat="42.90255" lon="0.21045">
        <ele>1768.4824219</ele>
        <time>2013-05-05T12:51:03Z</time>
      </trkpt>
      <trkpt lat="42.90276" lon="0.21054">
        <ele>1762.2338867</ele>
        <time>2013-05-05T12:51:23Z</time>
      </trkpt>
      <trkpt lat="42.90301" lon="0.21069">
        <ele>1755.5046387</ele>
        <time>2013-05-05T12:51:45Z</time>
      </trkpt>
      <trkpt lat="42.90319" lon="0.21085">
        <ele>1751.6594238</ele>
        <time>2013-05-05T12:52:02Z</time>
      </trkpt>
      <trkpt lat="42.90325" lon="0.21088">
        <ele>1751.1787109</ele>
        <time>2013-05-05T12:52:07Z</time>
      </trkpt>
      <trkpt lat="42.90332" lon="0.21098">
        <ele>1749.2561035</ele>
        <time>2013-05-05T12:52:25Z</time>
      </trkpt>
      <trkpt lat="42.90334" lon="0.21098">
        <ele>1749.2561035</ele>
        <time>2013-05-05T12:52:49Z</time>
      </trkpt>
      <trkpt lat="42.9034" lon="0.21107">
        <ele>1748.2946777</ele>
        <time>2013-05-05T12:53:16Z</time>
      </trkpt>
      <trkpt lat="42.90351" lon="0.21127">
        <ele>1747.814209</ele>
        <time>2013-05-05T12:53:31Z</time>
      </trkpt>
      <trkpt lat="42.90356" lon="0.21137">
        <ele>1744.9301758</ele>
        <time>2013-05-05T12:53:38Z</time>
      </trkpt>
      <trkpt lat="42.90368" lon="0.21151">
        <ele>1743.0075684</ele>
        <time>2013-05-05T12:53:55Z</time>
      </trkpt>
      <trkpt lat="42.90377" lon="0.21161">
        <ele>1740.604248</ele>
        <time>2013-05-05T12:54:06Z</time>
      </trkpt>
      <trkpt lat="42.90379" lon="0.21163">
        <ele>1739.6428223</ele>
        <time>2013-05-05T12:54:09Z</time>
      </trkpt>
      <trkpt lat="42.90383" lon="0.21167">
        <ele>1737.7202148</ele>
        <time>2013-05-05T12:54:13Z</time>
      </trkpt>
      <trkpt lat="42.90389" lon="0.21175">
        <ele>1735.3168945</ele>
        <time>2013-05-05T12:54:20Z</time>
      </trkpt>
      <trkpt lat="42.90396" lon="0.21182">
        <ele>1731.4716797</ele>
        <time>2013-05-05T12:54:36Z</time>
      </trkpt>
      <trkpt lat="42.90412" lon="0.212">
        <ele>1726.1845703</ele>
        <time>2013-05-05T12:54:52Z</time>
      </trkpt>
      <trkpt lat="42.90427" lon="0.2122">
        <ele>1722.8198242</ele>
        <time>2013-05-05T12:55:08Z</time>
      </trkpt>
      <trkpt lat="42.90455" lon="0.21233">
        <ele>1712.7260742</ele>
        <time>2013-05-05T12:55:29Z</time>
      </trkpt>
      <trkpt lat="42.90468" lon="0.21242">
        <ele>1704.5546875</ele>
        <time>2013-05-05T12:55:40Z</time>
      </trkpt>
      <trkpt lat="42.90501" lon="0.21257">
        <ele>1686.2897949</ele>
        <time>2013-05-05T12:56:00Z</time>
      </trkpt>
      <trkpt lat="42.90503" lon="0.21257">
        <ele>1684.8479004</ele>
        <time>2013-05-05T12:56:02Z</time>
      </trkpt>
      <trkpt lat="42.90518" lon="0.21251">
        <ele>1674.7539063</ele>
        <time>2013-05-05T12:56:12Z</time>
      </trkpt>
      <trkpt lat="42.9052" lon="0.21249">
        <ele>1673.3120117</ele>
        <time>2013-05-05T12:56:17Z</time>
      </trkpt>
      <trkpt lat="42.90523" lon="0.21246">
        <ele>1669.9472656</ele>
        <time>2013-05-05T12:56:21Z</time>
      </trkpt>
      <trkpt lat="42.90536" lon="0.21257">
        <ele>1664.6601563</ele>
        <time>2013-05-05T12:56:39Z</time>
      </trkpt>
      <trkpt lat="42.90537" lon="0.21256">
        <ele>1663.6987305</ele>
        <time>2013-05-05T12:56:41Z</time>
      </trkpt>
      <trkpt lat="42.90548" lon="0.21253">
        <ele>1660.8149414</ele>
        <time>2013-05-05T12:56:52Z</time>
      </trkpt>
      <trkpt lat="42.90557" lon="0.21253">
        <ele>1657.4501953</ele>
        <time>2013-05-05T12:56:59Z</time>
      </trkpt>
      <trkpt lat="42.90574" lon="0.21259">
        <ele>1650.7209473</ele>
        <time>2013-05-05T12:57:16Z</time>
      </trkpt>
      <trkpt lat="42.90577" lon="0.21255">
        <ele>1650.7209473</ele>
        <time>2013-05-05T12:57:35Z</time>
      </trkpt>
      <trkpt lat="42.90575" lon="0.21257">
        <ele>1651.2016602</ele>
        <time>2013-05-05T12:58:17Z</time>
      </trkpt>
      <trkpt lat="42.90575" lon="0.21258">
        <ele>1651.2016602</ele>
        <time>2013-05-05T12:59:21Z</time>
      </trkpt>
      <trkpt lat="42.90584" lon="0.21262">
        <ele>1650.2404785</ele>
        <time>2013-05-05T13:00:21Z</time>
      </trkpt>
      <trkpt lat="42.90606" lon="0.21277">
        <ele>1644.4724121</ele>
        <time>2013-05-05T13:00:40Z</time>
      </trkpt>
      <trkpt lat="42.90631" lon="0.21287">
        <ele>1635.3398438</ele>
        <time>2013-05-05T13:00:58Z</time>
      </trkpt>
      <trkpt lat="42.9066" lon="0.21302">
        <ele>1629.5720215</ele>
        <time>2013-05-05T13:01:18Z</time>
      </trkpt>
      <trkpt lat="42.90671" lon="0.21294">
        <ele>1625.2458496</ele>
        <time>2013-05-05T13:01:26Z</time>
      </trkpt>
      <trkpt lat="42.90689" lon="0.21279">
        <ele>1620.920166</ele>
        <time>2013-05-05T13:01:39Z</time>
      </trkpt>
      <trkpt lat="42.90696" lon="0.21275">
        <ele>1618.9975586</ele>
        <time>2013-05-05T13:01:44Z</time>
      </trkpt>
      <trkpt lat="42.90714" lon="0.2125">
        <ele>1607.4616699</ele>
        <time>2013-05-05T13:02:01Z</time>
      </trkpt>
      <trkpt lat="42.90722" lon="0.21233">
        <ele>1604.097168</ele>
        <time>2013-05-05T13:02:10Z</time>
      </trkpt>
      <trkpt lat="42.90728" lon="0.21228">
        <ele>1602.1743164</ele>
        <time>2013-05-05T13:02:15Z</time>
      </trkpt>
      <trkpt lat="42.90732" lon="0.21231">
        <ele>1600.7324219</ele>
        <time>2013-05-05T13:02:19Z</time>
      </trkpt>
      <trkpt lat="42.90735" lon="0.21235">
        <ele>1601.2131348</ele>
        <time>2013-05-05T13:02:25Z</time>
      </trkpt>
      <trkpt lat="42.9074" lon="0.21239">
        <ele>1598.8098145</ele>
        <time>2013-05-05T13:02:30Z</time>
      </trkpt>
      <trkpt lat="42.90764" lon="0.21238">
        <ele>1590.157959</ele>
        <time>2013-05-05T13:02:47Z</time>
      </trkpt>
      <trkpt lat="42.9078" lon="0.21247">
        <ele>1587.2739258</ele>
        <time>2013-05-05T13:03:01Z</time>
      </trkpt>
      <trkpt lat="42.90781" lon="0.21248">
        <ele>1587.2739258</ele>
        <time>2013-05-05T13:03:02Z</time>
      </trkpt>
      <trkpt lat="42.90782" lon="0.21252">
        <ele>1588.2353516</ele>
        <time>2013-05-05T13:03:19Z</time>
      </trkpt>
      <trkpt lat="42.90779" lon="0.21252">
        <ele>1586.7932129</ele>
        <time>2013-05-05T13:03:34Z</time>
      </trkpt>
      <trkpt lat="42.9078" lon="0.2125">
        <ele>1586.3127441</ele>
        <time>2013-05-05T13:04:26Z</time>
      </trkpt>
      <trkpt lat="42.9078" lon="0.21252">
        <ele>1586.3127441</ele>
        <time>2013-05-05T13:10:34Z</time>
      </trkpt>
      <trkpt lat="42.90779" lon="0.21251">
        <ele>1586.3127441</ele>
        <time>2013-05-05T13:12:39Z</time>
      </trkpt>
      <trkpt lat="42.90777" lon="0.21249">
        <ele>1586.3127441</ele>
        <time>2013-05-05T13:13:28Z</time>
      </trkpt>
      <trkpt lat="42.90776" lon="0.21247">
        <ele>1583.9094238</ele>
        <time>2013-05-05T13:14:40Z</time>
      </trkpt>
      <trkpt lat="42.90774" lon="0.21248">
        <ele>1584.3901367</ele>
        <time>2013-05-05T13:15:04Z</time>
      </trkpt>
      <trkpt lat="42.90773" lon="0.21247">
        <ele>1584.3901367</ele>
        <time>2013-05-05T13:15:36Z</time>
      </trkpt>
      <trkpt lat="42.90775" lon="0.21246">
        <ele>1584.3901367</ele>
        <time>2013-05-05T13:16:00Z</time>
      </trkpt>
      <trkpt lat="42.90777" lon="0.21247">
        <ele>1583.9094238</ele>
        <time>2013-05-05T13:16:10Z</time>
      </trkpt>
      <trkpt lat="42.90788" lon="0.21259">
        <ele>1581.5061035</ele>
        <time>2013-05-05T13:16:23Z</time>
      </trkpt>
      <trkpt lat="42.90813" lon="0.21282">
        <ele>1577.1801758</ele>
        <time>2013-05-05T13:16:45Z</time>
      </trkpt>
      <trkpt lat="42.90839" lon="0.213">
        <ele>1572.854248</ele>
        <time>2013-05-05T13:17:06Z</time>
      </trkpt>
      <trkpt lat="42.90862" lon="0.2132">
        <ele>1569.0090332</ele>
        <time>2013-05-05T13:17:28Z</time>
      </trkpt>
      <trkpt lat="42.90863" lon="0.21321">
        <ele>1569.0090332</ele>
        <time>2013-05-05T13:17:29Z</time>
      </trkpt>
      <trkpt lat="42.90867" lon="0.21327">
        <ele>1568.5283203</ele>
        <time>2013-05-05T13:17:35Z</time>
      </trkpt>
      <trkpt lat="42.9087" lon="0.21333">
        <ele>1568.5283203</ele>
        <time>2013-05-05T13:17:40Z</time>
      </trkpt>
      <trkpt lat="42.90881" lon="0.2136">
        <ele>1566.6057129</ele>
        <time>2013-05-05T13:18:00Z</time>
      </trkpt>
      <trkpt lat="42.90883" lon="0.21372">
        <ele>1567.5668945</ele>
        <time>2013-05-05T13:18:09Z</time>
      </trkpt>
      <trkpt lat="42.90886" lon="0.21388">
        <ele>1568.0476074</ele>
        <time>2013-05-05T13:18:24Z</time>
      </trkpt>
      <trkpt lat="42.90886" lon="0.21391">
        <ele>1567.5668945</ele>
        <time>2013-05-05T13:18:26Z</time>
      </trkpt>
      <trkpt lat="42.90891" lon="0.214">
        <ele>1567.5668945</ele>
        <time>2013-05-05T13:18:34Z</time>
      </trkpt>
      <trkpt lat="42.90898" lon="0.2141">
        <ele>1566.125</ele>
        <time>2013-05-05T13:18:49Z</time>
      </trkpt>
      <trkpt lat="42.90904" lon="0.21422">
        <ele>1566.6057129</ele>
        <time>2013-05-05T13:19:03Z</time>
      </trkpt>
      <trkpt lat="42.90913" lon="0.21429">
        <ele>1566.125</ele>
        <time>2013-05-05T13:19:15Z</time>
      </trkpt>
      <trkpt lat="42.90916" lon="0.21434">
        <ele>1567.0864258</ele>
        <time>2013-05-05T13:19:26Z</time>
      </trkpt>
      <trkpt lat="42.90918" lon="0.21436">
        <ele>1568.0476074</ele>
        <time>2013-05-05T13:19:28Z</time>
      </trkpt>
      <trkpt lat="42.9094" lon="0.21446">
        <ele>1566.125</ele>
        <time>2013-05-05T13:19:46Z</time>
      </trkpt>
      <trkpt lat="42.90953" lon="0.21457">
        <ele>1563.2409668</ele>
        <time>2013-05-05T13:20:02Z</time>
      </trkpt>
      <trkpt lat="42.9096" lon="0.2146">
        <ele>1561.7990723</ele>
        <time>2013-05-05T13:20:08Z</time>
      </trkpt>
      <trkpt lat="42.90976" lon="0.21474">
        <ele>1558.4343262</ele>
        <time>2013-05-05T13:20:24Z</time>
      </trkpt>
      <trkpt lat="42.90993" lon="0.21487">
        <ele>1556.0310059</ele>
        <time>2013-05-05T13:20:40Z</time>
      </trkpt>
      <trkpt lat="42.90997" lon="0.2149">
        <ele>1556.0310059</ele>
        <time>2013-05-05T13:20:44Z</time>
      </trkpt>
      <trkpt lat="42.91006" lon="0.21496">
        <ele>1556.5117188</ele>
        <time>2013-05-05T13:20:52Z</time>
      </trkpt>
      <trkpt lat="42.91017" lon="0.21508">
        <ele>1554.5891113</ele>
        <time>2013-05-05T13:21:05Z</time>
      </trkpt>
      <trkpt lat="42.91023" lon="0.21509">
        <ele>1553.6279297</ele>
        <time>2013-05-05T13:21:10Z</time>
      </trkpt>
      <trkpt lat="42.91026" lon="0.21515">
        <ele>1552.6665039</ele>
        <time>2013-05-05T13:21:15Z</time>
      </trkpt>
      <trkpt lat="42.91027" lon="0.21518">
        <ele>1552.185791</ele>
        <time>2013-05-05T13:21:18Z</time>
      </trkpt>
      <trkpt lat="42.91028" lon="0.2152">
        <ele>1551.2246094</ele>
        <time>2013-05-05T13:21:20Z</time>
      </trkpt>
      <trkpt lat="42.91032" lon="0.21526">
        <ele>1550.7438965</ele>
        <time>2013-05-05T13:21:25Z</time>
      </trkpt>
      <trkpt lat="42.91048" lon="0.21528">
        <ele>1549.302002</ele>
        <time>2013-05-05T13:21:39Z</time>
      </trkpt>
      <trkpt lat="42.91054" lon="0.21535">
        <ele>1546.8984375</ele>
        <time>2013-05-05T13:21:49Z</time>
      </trkpt>
      <trkpt lat="42.91056" lon="0.21536">
        <ele>1545.9372559</ele>
        <time>2013-05-05T13:21:51Z</time>
      </trkpt>
      <trkpt lat="42.91061" lon="0.21535">
        <ele>1544.9758301</ele>
        <time>2013-05-05T13:21:55Z</time>
      </trkpt>
      <trkpt lat="42.91065" lon="0.21536">
        <ele>1543.5339355</ele>
        <time>2013-05-05T13:21:59Z</time>
      </trkpt>
      <trkpt lat="42.91069" lon="0.21536">
        <ele>1543.5339355</ele>
        <time>2013-05-05T13:22:02Z</time>
      </trkpt>
      <trkpt lat="42.91079" lon="0.21534">
        <ele>1544.0146484</ele>
        <time>2013-05-05T13:22:14Z</time>
      </trkpt>
      <trkpt lat="42.91084" lon="0.21529">
        <ele>1544.9758301</ele>
        <time>2013-05-05T13:22:18Z</time>
      </trkpt>
      <trkpt lat="42.91085" lon="0.21524">
        <ele>1546.4179688</ele>
        <time>2013-05-05T13:22:21Z</time>
      </trkpt>
      <trkpt lat="42.91092" lon="0.21503">
        <ele>1551.7053223</ele>
        <time>2013-05-05T13:22:43Z</time>
      </trkpt>
      <trkpt lat="42.91094" lon="0.21496">
        <ele>1553.6279297</ele>
        <time>2013-05-05T13:22:50Z</time>
      </trkpt>
      <trkpt lat="42.91098" lon="0.21493">
        <ele>1553.6279297</ele>
        <time>2013-05-05T13:22:54Z</time>
      </trkpt>
      <trkpt lat="42.91118" lon="0.21478">
        <ele>1553.1472168</ele>
        <time>2013-05-05T13:23:14Z</time>
      </trkpt>
      <trkpt lat="42.91128" lon="0.21475">
        <ele>1554.1086426</ele>
        <time>2013-05-05T13:23:30Z</time>
      </trkpt>
      <trkpt lat="42.91131" lon="0.21478">
        <ele>1553.1472168</ele>
        <time>2013-05-05T13:23:34Z</time>
      </trkpt>
      <trkpt lat="42.9114" lon="0.21485">
        <ele>1549.7827148</ele>
        <time>2013-05-05T13:23:43Z</time>
      </trkpt>
      <trkpt lat="42.91144" lon="0.21492">
        <ele>1547.8598633</ele>
        <time>2013-05-05T13:23:50Z</time>
      </trkpt>
      <trkpt lat="42.91169" lon="0.21514">
        <ele>1547.3791504</ele>
        <time>2013-05-05T13:24:13Z</time>
      </trkpt>
      <trkpt lat="42.91174" lon="0.21519">
        <ele>1547.8598633</ele>
        <time>2013-05-05T13:24:19Z</time>
      </trkpt>
      <trkpt lat="42.91178" lon="0.21532">
        <ele>1546.8984375</ele>
        <time>2013-05-05T13:24:30Z</time>
      </trkpt>
      <trkpt lat="42.91193" lon="0.21549">
        <ele>1543.5339355</ele>
        <time>2013-05-05T13:24:46Z</time>
      </trkpt>
      <trkpt lat="42.91196" lon="0.21552">
        <ele>1543.5339355</ele>
        <time>2013-05-05T13:24:50Z</time>
      </trkpt>
      <trkpt lat="42.91218" lon="0.21563">
        <ele>1543.5339355</ele>
        <time>2013-05-05T13:25:11Z</time>
      </trkpt>
      <trkpt lat="42.91237" lon="0.21585">
        <ele>1546.8984375</ele>
        <time>2013-05-05T13:25:34Z</time>
      </trkpt>
      <trkpt lat="42.91263" lon="0.21595">
        <ele>1548.3405762</ele>
        <time>2013-05-05T13:25:55Z</time>
      </trkpt>
      <trkpt lat="42.91296" lon="0.21614">
        <ele>1548.8212891</ele>
        <time>2013-05-05T13:26:24Z</time>
      </trkpt>
      <trkpt lat="42.91318" lon="0.21626">
        <ele>1548.8212891</ele>
        <time>2013-05-05T13:26:42Z</time>
      </trkpt>
      <trkpt lat="42.91339" lon="0.21639">
        <ele>1549.7827148</ele>
        <time>2013-05-05T13:27:03Z</time>
      </trkpt>
      <trkpt lat="42.9136" lon="0.21657">
        <ele>1550.2634277</ele>
        <time>2013-05-05T13:27:24Z</time>
      </trkpt>
      <trkpt lat="42.91382" lon="0.21669">
        <ele>1548.3405762</ele>
        <time>2013-05-05T13:27:43Z</time>
      </trkpt>
      <trkpt lat="42.91391" lon="0.21673">
        <ele>1547.8598633</ele>
        <time>2013-05-05T13:27:50Z</time>
      </trkpt>
      <trkpt lat="42.91394" lon="0.21673">
        <ele>1547.8598633</ele>
        <time>2013-05-05T13:27:52Z</time>
      </trkpt>
      <trkpt lat="42.91411" lon="0.21677">
        <ele>1547.3791504</ele>
        <time>2013-05-05T13:28:06Z</time>
      </trkpt>
      <trkpt lat="42.91416" lon="0.2168">
        <ele>1546.8984375</ele>
        <time>2013-05-05T13:28:10Z</time>
      </trkpt>
      <trkpt lat="42.91438" lon="0.21678">
        <ele>1546.8984375</ele>
        <time>2013-05-05T13:28:28Z</time>
      </trkpt>
      <trkpt lat="42.91447" lon="0.21677">
        <ele>1546.8984375</ele>
        <time>2013-05-05T13:28:36Z</time>
      </trkpt>
      <trkpt lat="42.91469" lon="0.21669">
        <ele>1545.9372559</ele>
        <time>2013-05-05T13:28:55Z</time>
      </trkpt>
      <trkpt lat="42.9147" lon="0.21667">
        <ele>1545.9372559</ele>
        <time>2013-05-05T13:28:57Z</time>
      </trkpt>
      <trkpt lat="42.91485" lon="0.21659">
        <ele>1544.4951172</ele>
        <time>2013-05-05T13:29:09Z</time>
      </trkpt>
      <trkpt lat="42.91504" lon="0.21644">
        <ele>1538.7275391</ele>
        <time>2013-05-05T13:29:26Z</time>
      </trkpt>
      <trkpt lat="42.91509" lon="0.21643">
        <ele>1536.8046875</ele>
        <time>2013-05-05T13:29:30Z</time>
      </trkpt>
      <trkpt lat="42.91519" lon="0.21641">
        <ele>1535.362793</ele>
        <time>2013-05-05T13:29:38Z</time>
      </trkpt>
      <trkpt lat="42.91522" lon="0.21643">
        <ele>1535.362793</ele>
        <time>2013-05-05T13:29:41Z</time>
      </trkpt>
      <trkpt lat="42.91527" lon="0.21645">
        <ele>1535.362793</ele>
        <time>2013-05-05T13:29:46Z</time>
      </trkpt>
      <trkpt lat="42.91544" lon="0.21645">
        <ele>1533.9208984</ele>
        <time>2013-05-05T13:30:03Z</time>
      </trkpt>
      <trkpt lat="42.9155" lon="0.21645">
        <ele>1531.9980469</ele>
        <time>2013-05-05T13:30:16Z</time>
      </trkpt>
      <trkpt lat="42.91561" lon="0.2164">
        <ele>1528.6335449</ele>
        <time>2013-05-05T13:30:31Z</time>
      </trkpt>
      <trkpt lat="42.9158" lon="0.21626">
        <ele>1525.7495117</ele>
        <time>2013-05-05T13:30:49Z</time>
      </trkpt>
      <trkpt lat="42.91582" lon="0.21624">
        <ele>1525.2687988</ele>
        <time>2013-05-05T13:30:51Z</time>
      </trkpt>
      <trkpt lat="42.91584" lon="0.21624">
        <ele>1524.7883301</ele>
        <time>2013-05-05T13:30:53Z</time>
      </trkpt>
      <trkpt lat="42.916" lon="0.21603">
        <ele>1519.9816895</ele>
        <time>2013-05-05T13:31:12Z</time>
      </trkpt>
      <trkpt lat="42.91609" lon="0.21585">
        <ele>1516.1364746</ele>
        <time>2013-05-05T13:31:28Z</time>
      </trkpt>
      <trkpt lat="42.9161" lon="0.21584">
        <ele>1516.1364746</ele>
        <time>2013-05-05T13:31:31Z</time>
      </trkpt>
      <trkpt lat="42.91612" lon="0.21585">
        <ele>1516.6171875</ele>
        <time>2013-05-05T13:31:33Z</time>
      </trkpt>
      <trkpt lat="42.91614" lon="0.21579">
        <ele>1516.1364746</ele>
        <time>2013-05-05T13:31:37Z</time>
      </trkpt>
      <trkpt lat="42.91626" lon="0.21561">
        <ele>1512.2910156</ele>
        <time>2013-05-05T13:31:53Z</time>
      </trkpt>
      <trkpt lat="42.91628" lon="0.21556">
        <ele>1511.8105469</ele>
        <time>2013-05-05T13:31:56Z</time>
      </trkpt>
      <trkpt lat="42.91628" lon="0.2155">
        <ele>1511.8105469</ele>
        <time>2013-05-05T13:32:00Z</time>
      </trkpt>
      <trkpt lat="42.91633" lon="0.21521">
        <ele>1508.9265137</ele>
        <time>2013-05-05T13:32:18Z</time>
      </trkpt>
      <trkpt lat="42.91638" lon="0.21517">
        <ele>1508.4458008</ele>
        <time>2013-05-05T13:32:26Z</time>
      </trkpt>
      <trkpt lat="42.9164" lon="0.21513">
        <ele>1506.5231934</ele>
        <time>2013-05-05T13:32:48Z</time>
      </trkpt>
      <trkpt lat="42.91644" lon="0.21501">
        <ele>1506.5231934</ele>
        <time>2013-05-05T13:33:04Z</time>
      </trkpt>
      <trkpt lat="42.91645" lon="0.21498">
        <ele>1506.0424805</ele>
        <time>2013-05-05T13:33:32Z</time>
      </trkpt>
      <trkpt lat="42.91649" lon="0.21494">
        <ele>1504.6005859</ele>
        <time>2013-05-05T13:33:46Z</time>
      </trkpt>
      <trkpt lat="42.91641" lon="0.21491">
        <ele>1507.4846191</ele>
        <time>2013-05-05T13:34:20Z</time>
      </trkpt>
      <trkpt lat="42.91637" lon="0.21483">
        <ele>1510.3684082</ele>
        <time>2013-05-05T13:34:38Z</time>
      </trkpt>
      <trkpt lat="42.91631" lon="0.21484">
        <ele>1512.7717285</ele>
        <time>2013-05-05T13:34:51Z</time>
      </trkpt>
      <trkpt lat="42.91629" lon="0.21481">
        <ele>1514.6943359</ele>
        <time>2013-05-05T13:35:04Z</time>
      </trkpt>
      <trkpt lat="42.91629" lon="0.21472">
        <ele>1517.5783691</ele>
        <time>2013-05-05T13:35:19Z</time>
      </trkpt>
      <trkpt lat="42.91626" lon="0.21469">
        <ele>1520.4624023</ele>
        <time>2013-05-05T13:35:31Z</time>
      </trkpt>
      <trkpt lat="42.91623" lon="0.21463">
        <ele>1523.3464355</ele>
        <time>2013-05-05T13:35:44Z</time>
      </trkpt>
      <trkpt lat="42.91621" lon="0.21454">
        <ele>1525.7495117</ele>
        <time>2013-05-05T13:35:58Z</time>
      </trkpt>
      <trkpt lat="42.91619" lon="0.21444">
        <ele>1527.6721191</ele>
        <time>2013-05-05T13:36:13Z</time>
      </trkpt>
      <trkpt lat="42.91614" lon="0.21438">
        <ele>1528.6335449</ele>
        <time>2013-05-05T13:36:29Z</time>
      </trkpt>
      <trkpt lat="42.91606" lon="0.21439">
        <ele>1531.0368652</ele>
        <time>2013-05-05T13:36:42Z</time>
      </trkpt>
      <trkpt lat="42.916" lon="0.21441">
        <ele>1532.9594727</ele>
        <time>2013-05-05T13:36:55Z</time>
      </trkpt>
      <trkpt lat="42.91594" lon="0.2144">
        <ele>1534.8823242</ele>
        <time>2013-05-05T13:37:09Z</time>
      </trkpt>
      <trkpt lat="42.91593" lon="0.21434">
        <ele>1534.4016113</ele>
        <time>2013-05-05T13:37:26Z</time>
      </trkpt>
      <trkpt lat="42.91589" lon="0.21435">
        <ele>1535.362793</ele>
        <time>2013-05-05T13:37:51Z</time>
      </trkpt>
      <trkpt lat="42.9159" lon="0.21421">
        <ele>1531.517334</ele>
        <time>2013-05-05T13:38:05Z</time>
      </trkpt>
      <trkpt lat="42.9159" lon="0.21419">
        <ele>1531.0368652</ele>
        <time>2013-05-05T13:38:06Z</time>
      </trkpt>
      <trkpt lat="42.91588" lon="0.21402">
        <ele>1526.7109375</ele>
        <time>2013-05-05T13:38:20Z</time>
      </trkpt>
      <trkpt lat="42.9159" lon="0.21388">
        <ele>1522.3850098</ele>
        <time>2013-05-05T13:38:33Z</time>
      </trkpt>
      <trkpt lat="42.9159" lon="0.21387">
        <ele>1521.9042969</ele>
        <time>2013-05-05T13:38:34Z</time>
      </trkpt>
      <trkpt lat="42.91595" lon="0.21373">
        <ele>1516.6171875</ele>
        <time>2013-05-05T13:38:48Z</time>
      </trkpt>
      <trkpt lat="42.91596" lon="0.2136">
        <ele>1513.2524414</ele>
        <time>2013-05-05T13:39:01Z</time>
      </trkpt>
      <trkpt lat="42.91596" lon="0.21355">
        <ele>1511.8105469</ele>
        <time>2013-05-05T13:39:05Z</time>
      </trkpt>
      <trkpt lat="42.91592" lon="0.21351">
        <ele>1509.8876953</ele>
        <time>2013-05-05T13:39:11Z</time>
      </trkpt>
      <trkpt lat="42.91586" lon="0.21346">
        <ele>1507.0039063</ele>
        <time>2013-05-05T13:39:16Z</time>
      </trkpt>
      <trkpt lat="42.91588" lon="0.21342">
        <ele>1504.6005859</ele>
        <time>2013-05-05T13:39:20Z</time>
      </trkpt>
      <trkpt lat="42.91591" lon="0.21342">
        <ele>1502.6779785</ele>
        <time>2013-05-05T13:39:23Z</time>
      </trkpt>
      <trkpt lat="42.91596" lon="0.21329">
        <ele>1501.236084</ele>
        <time>2013-05-05T13:39:31Z</time>
      </trkpt>
      <trkpt lat="42.91589" lon="0.21326">
        <ele>1496.9099121</ele>
        <time>2013-05-05T13:39:40Z</time>
      </trkpt>
      <trkpt lat="42.9159" lon="0.21324">
        <ele>1495.9487305</ele>
        <time>2013-05-05T13:39:42Z</time>
      </trkpt>
      <trkpt lat="42.91591" lon="0.2132">
        <ele>1494.9873047</ele>
        <time>2013-05-05T13:39:46Z</time>
      </trkpt>
      <trkpt lat="42.91589" lon="0.21312">
        <ele>1491.1420898</ele>
        <time>2013-05-05T13:39:55Z</time>
      </trkpt>
      <trkpt lat="42.91585" lon="0.21307">
        <ele>1489.2194824</ele>
        <time>2013-05-05T13:40:00Z</time>
      </trkpt>
      <trkpt lat="42.91582" lon="0.21304">
        <ele>1488.2583008</ele>
        <time>2013-05-05T13:40:03Z</time>
      </trkpt>
      <trkpt lat="42.91581" lon="0.21299">
        <ele>1487.7775879</ele>
        <time>2013-05-05T13:40:07Z</time>
      </trkpt>
      <trkpt lat="42.91576" lon="0.21293">
        <ele>1486.3356934</ele>
        <time>2013-05-05T13:40:13Z</time>
      </trkpt>
      <trkpt lat="42.91573" lon="0.21288">
        <ele>1484.8937988</ele>
        <time>2013-05-05T13:40:16Z</time>
      </trkpt>
      <trkpt lat="42.91568" lon="0.21279">
        <ele>1482.0095215</ele>
        <time>2013-05-05T13:40:25Z</time>
      </trkpt>
      <trkpt lat="42.91567" lon="0.21271">
        <ele>1480.0869141</ele>
        <time>2013-05-05T13:40:33Z</time>
      </trkpt>
      <trkpt lat="42.91566" lon="0.21266">
        <ele>1478.6450195</ele>
        <time>2013-05-05T13:40:37Z</time>
      </trkpt>
      <trkpt lat="42.91563" lon="0.21251">
        <ele>1475.2802734</ele>
        <time>2013-05-05T13:40:46Z</time>
      </trkpt>
      <trkpt lat="42.91561" lon="0.21249">
        <ele>1475.2802734</ele>
        <time>2013-05-05T13:40:48Z</time>
      </trkpt>
      <trkpt lat="42.9156" lon="0.21237">
        <ele>1471.9157715</ele>
        <time>2013-05-05T13:40:56Z</time>
      </trkpt>
      <trkpt lat="42.91561" lon="0.21233">
        <ele>1470.473877</ele>
        <time>2013-05-05T13:41:01Z</time>
      </trkpt>
      <trkpt lat="42.91564" lon="0.21231">
        <ele>1469.0319824</ele>
        <time>2013-05-05T13:41:04Z</time>
      </trkpt>
      <trkpt lat="42.9157" lon="0.21228">
        <ele>1467.1091309</ele>
        <time>2013-05-05T13:41:09Z</time>
      </trkpt>
      <trkpt lat="42.91575" lon="0.21213">
        <ele>1462.7832031</ele>
        <time>2013-05-05T13:41:23Z</time>
      </trkpt>
      <trkpt lat="42.91571" lon="0.21204">
        <ele>1459.8991699</ele>
        <time>2013-05-05T13:41:33Z</time>
      </trkpt>
      <trkpt lat="42.91571" lon="0.21203">
        <ele>1459.8991699</ele>
        <time>2013-05-05T13:41:34Z</time>
      </trkpt>
      <trkpt lat="42.91567" lon="0.21193">
        <ele>1456.534668</ele>
        <time>2013-05-05T13:41:43Z</time>
      </trkpt>
      <trkpt lat="42.91574" lon="0.21194">
        <ele>1456.534668</ele>
        <time>2013-05-05T13:41:49Z</time>
      </trkpt>
      <trkpt lat="42.91577" lon="0.21186">
        <ele>1456.0539551</ele>
        <time>2013-05-05T13:41:59Z</time>
      </trkpt>
      <trkpt lat="42.91575" lon="0.21185">
        <ele>1455.5734863</ele>
        <time>2013-05-05T13:42:01Z</time>
      </trkpt>
      <trkpt lat="42.91571" lon="0.21175">
        <ele>1453.170166</ele>
        <time>2013-05-05T13:42:09Z</time>
      </trkpt>
      <trkpt lat="42.9157" lon="0.21171">
        <ele>1452.2087402</ele>
        <time>2013-05-05T13:42:13Z</time>
      </trkpt>
      <trkpt lat="42.91574" lon="0.21155">
        <ele>1449.324707</ele>
        <time>2013-05-05T13:42:27Z</time>
      </trkpt>
      <trkpt lat="42.91576" lon="0.21144">
        <ele>1445.9602051</ele>
        <time>2013-05-05T13:42:39Z</time>
      </trkpt>
      <trkpt lat="42.91582" lon="0.21141">
        <ele>1445.4794922</ele>
        <time>2013-05-05T13:42:47Z</time>
      </trkpt>
      <trkpt lat="42.91585" lon="0.21138">
        <ele>1445.4794922</ele>
        <time>2013-05-05T13:42:50Z</time>
      </trkpt>
      <trkpt lat="42.91588" lon="0.21136">
        <ele>1444.9987793</ele>
        <time>2013-05-05T13:42:52Z</time>
      </trkpt>
      <trkpt lat="42.91588" lon="0.21128">
        <ele>1444.0375977</ele>
        <time>2013-05-05T13:42:56Z</time>
      </trkpt>
      <trkpt lat="42.91588" lon="0.21125">
        <ele>1443.0761719</ele>
        <time>2013-05-05T13:42:58Z</time>
      </trkpt>
      <trkpt lat="42.9159" lon="0.21128">
        <ele>1441.6342773</ele>
        <time>2013-05-05T13:43:00Z</time>
      </trkpt>
      <trkpt lat="42.91596" lon="0.21127">
        <ele>1439.230957</ele>
        <time>2013-05-05T13:43:05Z</time>
      </trkpt>
      <trkpt lat="42.91598" lon="0.21129">
        <ele>1438.2697754</ele>
        <time>2013-05-05T13:43:07Z</time>
      </trkpt>
      <trkpt lat="42.91599" lon="0.21118">
        <ele>1435.385498</ele>
        <time>2013-05-05T13:43:12Z</time>
      </trkpt>
      <trkpt lat="42.91599" lon="0.21111">
        <ele>1432.9821777</ele>
        <time>2013-05-05T13:43:16Z</time>
      </trkpt>
      <trkpt lat="42.91599" lon="0.21105">
        <ele>1431.0598145</ele>
        <time>2013-05-05T13:43:19Z</time>
      </trkpt>
      <trkpt lat="42.91601" lon="0.211">
        <ele>1431.0598145</ele>
        <time>2013-05-05T13:43:24Z</time>
      </trkpt>
      <trkpt lat="42.91604" lon="0.21086">
        <ele>1427.6950684</ele>
        <time>2013-05-05T13:43:32Z</time>
      </trkpt>
      <trkpt lat="42.91606" lon="0.21052">
        <ele>1423.3693848</ele>
        <time>2013-05-05T13:43:51Z</time>
      </trkpt>
      <trkpt lat="42.91608" lon="0.21045">
        <ele>1421.9272461</ele>
        <time>2013-05-05T13:43:55Z</time>
      </trkpt>
      <trkpt lat="42.91612" lon="0.21023">
        <ele>1417.6010742</ele>
        <time>2013-05-05T13:44:07Z</time>
      </trkpt>
      <trkpt lat="42.91616" lon="0.21013">
        <ele>1416.6398926</ele>
        <time>2013-05-05T13:44:13Z</time>
      </trkpt>
      <trkpt lat="42.91621" lon="0.21007">
        <ele>1416.6398926</ele>
        <time>2013-05-05T13:44:19Z</time>
      </trkpt>
      <trkpt lat="42.91626" lon="0.20999">
        <ele>1416.6398926</ele>
        <time>2013-05-05T13:44:31Z</time>
      </trkpt>
      <trkpt lat="42.91628" lon="0.20993">
        <ele>1415.197998</ele>
        <time>2013-05-05T13:44:36Z</time>
      </trkpt>
      <trkpt lat="42.91629" lon="0.2099">
        <ele>1414.2365723</ele>
        <time>2013-05-05T13:44:39Z</time>
      </trkpt>
      <trkpt lat="42.91638" lon="0.2099">
        <ele>1413.2753906</ele>
        <time>2013-05-05T13:44:46Z</time>
      </trkpt>
      <trkpt lat="42.9164" lon="0.20983">
        <ele>1412.7946777</ele>
        <time>2013-05-05T13:44:51Z</time>
      </trkpt>
      <trkpt lat="42.91639" lon="0.20974">
        <ele>1411.8334961</ele>
        <time>2013-05-05T13:44:56Z</time>
      </trkpt>
      <trkpt lat="42.91642" lon="0.2097">
        <ele>1411.3527832</ele>
        <time>2013-05-05T13:45:00Z</time>
      </trkpt>
      <trkpt lat="42.91642" lon="0.20967">
        <ele>1410.3913574</ele>
        <time>2013-05-05T13:45:03Z</time>
      </trkpt>
      <trkpt lat="42.91648" lon="0.20958">
        <ele>1408.46875</ele>
        <time>2013-05-05T13:45:16Z</time>
      </trkpt>
      <trkpt lat="42.91658" lon="0.20954">
        <ele>1410.3913574</ele>
        <time>2013-05-05T13:45:28Z</time>
      </trkpt>
      <trkpt lat="42.91659" lon="0.20953">
        <ele>1410.8720703</ele>
        <time>2013-05-05T13:45:29Z</time>
      </trkpt>
      <trkpt lat="42.91658" lon="0.20934">
        <ele>1413.7558594</ele>
        <time>2013-05-05T13:45:49Z</time>
      </trkpt>
      <trkpt lat="42.9166" lon="0.2092">
        <ele>1414.7172852</ele>
        <time>2013-05-05T13:46:05Z</time>
      </trkpt>
      <trkpt lat="42.91666" lon="0.2092">
        <ele>1416.6398926</ele>
        <time>2013-05-05T13:46:19Z</time>
      </trkpt>
      <trkpt lat="42.91671" lon="0.20933">
        <ele>1419.5239258</ele>
        <time>2013-05-05T13:46:38Z</time>
      </trkpt>
      <trkpt lat="42.91684" lon="0.20944">
        <ele>1419.5239258</ele>
        <time>2013-05-05T13:46:55Z</time>
      </trkpt>
      <trkpt lat="42.91689" lon="0.20948">
        <ele>1419.5239258</ele>
        <time>2013-05-05T13:47:13Z</time>
      </trkpt>
      <trkpt lat="42.91691" lon="0.20944">
        <ele>1420.0046387</ele>
        <time>2013-05-05T13:47:26Z</time>
      </trkpt>
      <trkpt lat="42.91693" lon="0.20939">
        <ele>1419.5239258</ele>
        <time>2013-05-05T13:47:50Z</time>
      </trkpt>
      <trkpt lat="42.91692" lon="0.20939">
        <ele>1419.5239258</ele>
        <time>2013-05-05T13:51:24Z</time>
      </trkpt>
      <trkpt lat="42.91694" lon="0.2094">
        <ele>1419.1</ele>
      </trkpt>
    </trkseg>
  </trk>
</gpx>